Time,TemperatureF,DewpointF,PressureIn,WindDirection,WindDirectionDegrees,WindSpeedMPH,WindSpeedGustMPH,Humidity,HourlyPrecipIn,Conditions,Clouds,dailyrainin,SoftwareType,DateUTC
2013-10-24 00:10:00,77.0,69.0,29.94,NW,313,0.0,-999.0,77,-99.99,,,0.00,weatherlink.com 1.10,2013-10-24 04:10:00,
2013-10-24 00:25:00,76.8,69.0,29.94,NW,319,1.0,-999.0,77,-99.99,,,0.00,weatherlink.com 1.10,2013-10-24 04:25:00,
2013-10-24 00:40:00,76.4,69.0,29.94,NW,319,0.0,-999.0,79,-99.99,,,0.00,weatherlink.com 1.10,2013-10-24 04:40:00,
2013-10-24 00:55:00,76.1,70.0,29.94,NW,321,0.0,-999.0,80,-99.99,,,0.00,weatherlink.com 1.10,2013-10-24 04:55:00,
2013-10-24 01:10:00,75.9,70.0,29.94,NW,321,0.0,-999.0,81,-99.99,,,0.00,weatherlink.com 1.10,2013-10-24 05:10:00,
2013-10-24 01:25:00,75.6,69.0,29.95,NW,321,1.0,-999.0,81,-99.99,,,0.00,weatherlink.com 1.10,2013-10-24 05:25:00,
2013-10-24 01:40:00,75.4,69.0,29.94,NW,314,2.0,-999.0,81,-99.99,,,0.00,weatherlink.com 1.10,2013-10-24 05:40:00,
2013-10-24 01:55:00,75.3,69.0,29.94,NW,317,0.0,-999.0,81,-99.99,,,0.00,weatherlink.com 1.10,2013-10-24 05:55:00,
2013-10-24 02:10:00,75.1,69.0,29.94,NNW,328,1.0,-999.0,81,-99.99,,,0.00,weatherlink.com 1.10,2013-10-24 06:10:00,
2013-10-24 02:25:00,74.9,69.0,29.94,NW,322,2.0,-999.0,81,-99.99,,,0.00,weatherlink.com 1.10,2013-10-24 06:25:00,
2013-10-24 02:40:00,74.7,69.0,29.94,NW,321,2.0,-999.0,81,-99.99,,,0.00,weatherlink.com 1.10,2013-10-24 06:40:00,
2013-10-24 02:55:00,74.7,69.0,29.93,NW,306,2.0,-999.0,81,-99.99,,,0.00,weatherlink.com 1.10,2013-10-24 06:55:00,
2013-10-24 03:10:00,74.6,68.0,29.93,NW,326,2.0,-999.0,81,-99.99,,,0.00,weatherlink.com 1.10,2013-10-24 07:10:00,
2013-10-24 03:25:00,74.4,69.0,29.93,NW,314,1.0,-999.0,82,-99.99,,,0.00,weatherlink.com 1.10,2013-10-24 07:25:00,
2013-10-24 03:40:00,74.1,68.0,29.93,NW,311,1.0,-999.0,82,-99.99,,,0.00,weatherlink.com 1.10,2013-10-24 07:40:00,
2013-10-24 03:55:00,74.2,69.0,29.92,NW,314,0.0,-999.0,83,-99.99,,,0.00,weatherlink.com 1.10,2013-10-24 07:55:00,
2013-10-24 04:10:00,74.2,69.0,29.93,NNW,339,1.0,-999.0,83,-99.99,,,0.00,weatherlink.com 1.10,2013-10-24 08:10:00,
2013-10-24 04:25:00,74.4,69.0,29.93,NW,325,1.0,-999.0,83,-99.99,,,0.00,weatherlink.com 1.10,2013-10-24 08:25:00,
2013-10-24 04:40:00,74.4,69.0,29.94,NW,322,4.0,-999.0,82,-99.99,,,0.00,weatherlink.com 1.10,2013-10-24 08:40:00,
2013-10-24 04:56:00,73.9,69.0,29.94,NNW,337,4.0,-999.0,83,-99.99,,,0.00,weatherlink.com 1.10,2013-10-24 08:56:00,
2013-10-24 05:10:00,73.5,68.0,29.94,NNW,329,1.0,-999.0,82,-99.99,,,0.00,weatherlink.com 1.10,2013-10-24 09:10:00,
2013-10-24 05:26:00,73.4,67.0,29.94,NW,319,1.0,-999.0,81,-99.99,,,0.00,weatherlink.com 1.10,2013-10-24 09:26:00,
2013-10-24 05:41:00,73.2,66.0,29.94,North,350,2.0,-999.0,79,-99.99,,,0.00,weatherlink.com 1.10,2013-10-24 09:41:00,
2013-10-24 05:56:00,72.9,65.0,29.95,NW,326,3.0,-999.0,77,-99.99,,,0.00,weatherlink.com 1.10,2013-10-24 09:56:00,
2013-10-24 06:11:00,72.8,65.0,29.95,NNE,13,1.0,-999.0,76,-99.99,,,0.00,weatherlink.com 1.10,2013-10-24 10:11:00,
2013-10-24 06:26:00,72.6,64.0,29.96,NNW,329,3.0,-999.0,75,-99.99,,,0.00,weatherlink.com 1.10,2013-10-24 10:26:00,
2013-10-24 06:41:00,72.4,64.0,29.96,NW,317,4.0,-999.0,76,-99.99,,,0.00,weatherlink.com 1.10,2013-10-24 10:41:00,
2013-10-24 06:56:00,72.1,63.0,29.96,NNW,327,0.0,-999.0,74,-99.99,,,0.00,weatherlink.com 1.10,2013-10-24 10:56:00,
2013-10-24 07:11:00,71.9,64.0,29.96,NNW,333,2.0,-999.0,75,-99.99,,,0.00,weatherlink.com 1.10,2013-10-24 11:11:00,
2013-10-24 07:26:00,71.7,63.0,29.97,NW,323,1.0,-999.0,75,-99.99,,,0.00,weatherlink.com 1.10,2013-10-24 11:26:00,
2013-10-24 07:41:00,71.6,63.0,29.98,NNW,329,2.0,-999.0,75,-99.99,,,0.00,weatherlink.com 1.10,2013-10-24 11:41:00,
2013-10-24 07:56:00,71.6,63.0,29.99,NW,307,3.0,-999.0,75,-99.99,,,0.00,weatherlink.com 1.10,2013-10-24 11:56:00,
2013-10-24 08:11:00,71.5,63.0,30.00,NNW,331,3.0,-999.0,75,-99.99,,,0.00,weatherlink.com 1.10,2013-10-24 12:11:00,
2013-10-24 08:26:00,71.4,64.0,30.00,WNW,290,3.0,-999.0,76,-99.99,,,0.00,weatherlink.com 1.10,2013-10-24 12:26:00,
2013-10-24 08:41:00,71.7,63.0,30.00,NNE,21,0.0,-999.0,75,-99.99,,,0.00,weatherlink.com 1.10,2013-10-24 12:41:00,
2013-10-24 08:56:00,71.7,63.0,30.01,NW,325,2.0,-999.0,75,-99.99,,,0.00,weatherlink.com 1.10,2013-10-24 12:56:00,
2013-10-24 11:57:00,79.9,68.0,30.05,ENE,74,1.0,-999.0,67,-99.99,,,0.00,weatherlink.com 1.10,2013-10-24 15:57:00,
2013-10-24 12:12:00,80.9,68.0,30.05,ENE,75,4.0,-999.0,64,-99.99,,,0.00,weatherlink.com 1.10,2013-10-24 16:12:00,
2013-10-24 12:27:00,81.0,67.0,30.04,ENE,72,2.0,-999.0,63,-99.99,,,0.00,weatherlink.com 1.10,2013-10-24 16:27:00,
2013-10-24 12:43:00,80.5,67.0,30.04,NNE,24,2.0,-999.0,64,-99.99,,,0.00,weatherlink.com 1.10,2013-10-24 16:43:00,
2013-10-24 13:12:00,80.2,67.0,30.03,NE,45,2.0,-999.0,64,-99.99,,,0.00,weatherlink.com 1.10,2013-10-24 17:12:00,
2013-10-24 13:27:00,79.8,67.0,30.03,NE,44,5.0,-999.0,64,-99.99,,,0.00,weatherlink.com 1.10,2013-10-24 17:27:00,
2013-10-24 13:42:00,79.6,67.0,30.02,ENE,67,1.0,-999.0,66,-99.99,,,0.00,weatherlink.com 1.10,2013-10-24 17:42:00,
2013-10-24 13:57:00,79.6,68.0,30.02,West,264,0.0,-999.0,67,-99.99,,,0.00,weatherlink.com 1.10,2013-10-24 17:57:00,
2013-10-24 14:12:00,79.5,66.0,30.02,NE,35,1.0,-999.0,64,-99.99,,,0.00,weatherlink.com 1.10,2013-10-24 18:12:00,
2013-10-24 14:28:00,79.6,66.0,30.02,NNW,335,3.0,-999.0,64,-99.99,,,0.00,weatherlink.com 1.10,2013-10-24 18:28:00,
2013-10-24 14:43:00,79.7,66.0,30.02,NNE,16,7.0,-999.0,63,-99.99,,,0.00,weatherlink.com 1.10,2013-10-24 18:43:00,
2013-10-24 14:58:00,79.2,65.0,30.03,NNE,31,3.0,-999.0,63,-99.99,,,0.00,weatherlink.com 1.10,2013-10-24 18:58:00,
2013-10-24 15:13:00,79.2,66.0,30.02,NE,38,3.0,-999.0,64,-99.99,,,0.00,weatherlink.com 1.10,2013-10-24 19:13:00,
2013-10-24 15:28:00,79.2,66.0,30.03,NE,34,3.0,-999.0,64,-99.99,,,0.00,weatherlink.com 1.10,2013-10-24 19:28:00,
2013-10-24 15:43:00,79.2,66.0,30.02,North,350,1.0,-999.0,64,-99.99,,,0.00,weatherlink.com 1.10,2013-10-24 19:43:00,
2013-10-24 15:58:00,79.0,66.0,30.02,NE,34,2.0,-999.0,64,-99.99,,,0.00,weatherlink.com 1.10,2013-10-24 19:58:00,
2013-10-24 16:13:00,79.2,65.0,30.02,ENE,71,1.0,-999.0,63,-99.99,,,0.00,weatherlink.com 1.10,2013-10-24 20:13:00,
2013-10-24 16:28:00,79.2,66.0,30.02,ENE,67,0.0,-999.0,64,-99.99,,,0.00,weatherlink.com 1.10,2013-10-24 20:28:00,
2013-10-24 16:43:00,79.0,66.0,30.02,ENE,71,5.0,-999.0,64,-99.99,,,0.00,weatherlink.com 1.10,2013-10-24 20:43:00,
2013-10-24 16:58:00,78.8,66.0,30.02,NW,309,1.0,-999.0,65,-99.99,,,0.00,weatherlink.com 1.10,2013-10-24 20:58:00,
2013-10-24 17:13:00,78.7,66.0,30.02,NNW,333,1.0,-999.0,65,-99.99,,,0.00,weatherlink.com 1.10,2013-10-24 21:13:00,
2013-10-24 17:28:00,78.5,66.0,30.02,NE,40,0.0,-999.0,65,-99.99,,,0.00,weatherlink.com 1.10,2013-10-24 21:28:00,
2013-10-24 17:43:00,78.3,66.0,30.03,ENE,62,2.0,-999.0,65,-99.99,,,0.00,weatherlink.com 1.10,2013-10-24 21:43:00,
2013-10-24 17:58:00,78.1,65.0,30.02,NNE,28,0.0,-999.0,65,-99.99,,,0.00,weatherlink.com 1.10,2013-10-24 21:58:00,
2013-10-24 18:13:00,77.9,66.0,30.03,NNE,28,0.0,-999.0,66,-99.99,,,0.00,weatherlink.com 1.10,2013-10-24 22:13:00,
2013-10-24 18:28:00,77.7,65.0,30.03,WNW,303,0.0,-999.0,66,-99.99,,,0.00,weatherlink.com 1.10,2013-10-24 22:28:00,
2013-10-24 18:43:00,77.5,65.0,30.03,NE,36,2.0,-999.0,66,-99.99,,,0.00,weatherlink.com 1.10,2013-10-24 22:43:00,
2013-10-24 18:58:00,77.3,65.0,30.02,NNW,339,2.0,-999.0,65,-99.99,,,0.00,weatherlink.com 1.10,2013-10-24 22:58:00,
2013-10-24 19:13:00,77.1,64.0,30.02,NE,38,4.0,-999.0,65,-99.99,,,0.00,weatherlink.com 1.10,2013-10-24 23:13:00,
2013-10-24 19:28:00,77.0,64.0,30.03,ENE,64,2.0,-999.0,65,-99.99,,,0.00,weatherlink.com 1.10,2013-10-24 23:28:00,
2013-10-24 19:43:00,77.0,64.0,30.04,NW,304,3.0,-999.0,65,-99.99,,,0.00,weatherlink.com 1.10,2013-10-24 23:43:00,
2013-10-24 19:58:00,77.0,64.0,30.04,NE,43,0.0,-999.0,65,-99.99,,,0.00,weatherlink.com 1.10,2013-10-24 23:58:00,
2013-10-24 20:13:00,76.8,65.0,30.04,NW,318,0.0,-999.0,66,-99.99,,,0.00,weatherlink.com 1.10,2013-10-25 00:13:00,
2013-10-24 20:28:00,76.8,64.0,30.05,NE,34,0.0,-999.0,65,-99.99,,,0.00,weatherlink.com 1.10,2013-10-25 00:28:00,
2013-10-24 20:43:00,76.6,64.0,30.05,NE,40,1.0,-999.0,65,-99.99,,,0.00,weatherlink.com 1.10,2013-10-25 00:43:00,
2013-10-24 20:58:00,76.6,63.0,30.06,NNE,28,0.0,-999.0,64,-99.99,,,0.00,weatherlink.com 1.10,2013-10-25 00:58:00,
2013-10-24 21:13:00,76.7,63.0,30.05,ENE,67,1.0,-999.0,63,-99.99,,,0.00,weatherlink.com 1.10,2013-10-25 01:13:00,
2013-10-24 21:28:00,76.6,63.0,30.05,NNE,29,0.0,-999.0,63,-99.99,,,0.00,weatherlink.com 1.10,2013-10-25 01:28:00,
2013-10-24 21:43:00,76.8,64.0,30.05,ENE,60,0.0,-999.0,64,-99.99,,,0.00,weatherlink.com 1.10,2013-10-25 01:43:00,
2013-10-24 21:58:00,76.8,64.0,30.06,NE,51,4.0,-999.0,64,-99.99,,,0.00,weatherlink.com 1.10,2013-10-25 01:58:00,
2013-10-24 22:13:00,76.8,64.0,30.07,ENE,69,0.0,-999.0,64,-99.99,,,0.00,weatherlink.com 1.10,2013-10-25 02:13:00,
2013-10-24 22:28:00,76.7,64.0,30.07,NW,309,1.0,-999.0,64,-99.99,,,0.00,weatherlink.com 1.10,2013-10-25 02:28:00,
2013-10-24 22:43:00,76.7,64.0,30.07,ENE,67,1.0,-999.0,64,-99.99,,,0.00,weatherlink.com 1.10,2013-10-25 02:43:00,
2013-10-24 22:58:00,76.5,64.0,30.08,NE,55,1.0,-999.0,65,-99.99,,,0.00,weatherlink.com 1.10,2013-10-25 02:58:00,
2013-10-24 23:13:00,76.5,64.0,30.08,NE,36,0.0,-999.0,65,-99.99,,,0.00,weatherlink.com 1.10,2013-10-25 03:13:00,
2013-10-24 23:28:00,76.3,64.0,30.08,NNE,23,1.0,-999.0,66,-99.99,,,0.00,weatherlink.com 1.10,2013-10-25 03:28:00,
2013-10-24 23:43:00,76.2,64.0,30.07,East,86,1.0,-999.0,66,-99.99,,,0.00,weatherlink.com 1.10,2013-10-25 03:43:00,
2013-10-24 23:58:00,76.1,63.0,30.07,NE,55,0.0,-999.0,65,-99.99,,,0.00,weatherlink.com 1.10,2013-10-25 03:58:00,